FALCON 9 R/B, 44869

Orbit data source: Space-Track

FALCON 9 R/B, 44869 is space debris in HEO originally from a launch on Tue, 17 Dec 2019 UTC launched from the Air Force Eastern Test Range (AFETR). Debris objects in space refer to the collection of defunct objects orbiting the Earth. Examples of debris include non-operational satellites, rocket bodies, and fragments generated from explosions, collisions, or faulty payload assembly.

Loading next visibility...
Identifier
44869, 2019-091B
Orbit
HEO
Country
Flag of USUS
Related business
Manufacturer
SpaceX
Mission
Spacecraft
Bus & Motor
F9ST2, Unknown motor
Mass
~4,000 kg wet, ~4,000 kg dry
Launch date (UTC)
2019-12-17 (6 years ago)
Launch vehicle
Unknown
Launch site
Air Force Eastern Test Range (AFETR)
Object type
Payload
Rocket body
Debris
Shape & HBR
Cyl, 7.8 m
Radar Cross Section
39.980 m², Large (>1 m²)

Expand to show TLE details & history
Last TLE update: 7 hours ago

TLE from 7 hours ago
0 FALCON 9 R/B
1 44869U 19091B   26035.04013898  .00001844  00000-0  59149-3 0  9998
2 44869  27.0148 315.8557 5809046 239.4396  51.0831  4.30459806 93354
Epoch: 2026-02-04T00:57Z
TLE epoch observation values (Epoch: 2026-02-04T00:57:48.007Z)
Latitude
0.00013°
Longitude
167.21746°
Altitude
8,655.274 km
Speed
5.297 km/s
True Right ascension
21h 03m 31s
True Declination
0° 00' 00"
Sunlit
Object was in daylight at epoch
Visualization orbit readout
Latitude
Unknown
Longitude
Unknown
Altitude
Unknown
Speed
Unknown
Apparent Right ascension
Unknown
Apparent Declination
Unknown
Sunlit
N/A
Visualization observer readout
Local Sidereal Time
10:05:25
Azimuth
Unknown
Elevation
Unknown
Doppler factor
Unknown
Orbital elements
Apogee altitude
18,863.382 km
Perigee altitude
313.351 km
Semi-major axis
15,966.503 km
Eccentricity
0.5809
Inclination
27.0148°
RAAN
315.8557°
Arg. of periapsis
239.4396°
True anomaly
120.6452°
Mean anomaly
51.0831°
Eccentric anomaly
84.19585°
Mean motion
1.07579 °/min
Orbital period
334.64 mins
BSTAR
0.00059149
Loading maneuver chart data...
Computing Atmospheric mass density...
Loading historical data...
Loading historical data...
Loading historical data...
Loading historical data...
Loading historical data...
Loading historical data...
Loading historical data...
Other satellites on launch #91 in the year 2019 (2019-12-17 UTC)

Documentation

Showing up to 5 results
|